Retour au catalogue

CRRES DEB

CANISTER

LostHEO
NORAD 29533·DEBRIS·🇺🇸 United States

Lancé Jul 25, 1990 depuis Cape Canaveral Space Force Station

Loading…

Prochains Passages (prochaines 24 heures)

TLE

PériméSource: Space-Track

Époque: Feb 5, 2026, 21:17 UTC

1 29533U 90065AA  26036.88716474  .00000108  00000-0  57626-3 0  9992
2 29533  18.0468 330.7753 7017151 241.6766  32.3997  2.56231949119019

Suivez CRRES DEB en temps réel avec AllMySat

Download on the App Store